METEOR 2-17 DEB

Satellite information

Favourite Embed

Satellite Type and Status

DEBRISIN ORBIT

Key statistics

Satellite METEOR 2-17 DEB at a glance.

Uptime

13734

Days in orbit

Revolutions

≈ 14.1

Per day

Orbit

LEO

Low Earth Orbit

Inclination

82.5

Latest

Satellite identification and parameters

Extended collection of information and parameters for METEOR 2-17 DEB.

Object identification

Identified? True

Debris? True

Object name: METEOR 2-17 DEB

International designator: 1988-005M

Object number (NORAD): 29067

Object ID (CCSDS): 29067

Country: COMMONWEALTH OF INDEPENDENT STATES (CIS)

Current information (Y/N): Y

RCS size: SMALL

Orbital parameters

Period: 102.442 minutes

Inclination: 82.5202 deg

SMA: 7252.368 km

Apoapsis: 900.2 km

Periapsis: 848.267 km

RAAN: 121.2299 deg

Eccentricy: 0.0035804

Argument of periapsis: 287.9836 deg

Mean anomaly: 71.7435 deg

Mean motion: 14.05668697 rev/day

Mean motion (dot): 0.00001314 rev/day2

B* drag term: 0.00079306 1/REarth

Two-line elements (TLE)

Creation date: Aug. 18, 2025, 6:36 a.m.

Reference frame: TEME

Reference center: EARTH

Epoch: Aug. 17, 2025, 10:36 p.m. UTC

TLE line 0: 0 METEOR 2-17 DEB

TLE line 1: 1 29067U 88005M 25229.94232499 .00001314 00000-0 79306-3 0 9994

TLE line 2: 2 29067 82.5202 121.2299 0035804 287.9836 71.7435 14.05668697993712

Live tracking on map

Real-time ground track for satellite METEOR 2-17 DEB.

In-orbit conjunctions

A list of the most updated potential collisions computed for object METEOR 2-17 DEB.

Target Orbit TCA Probability of collision Miss distance Type
FENGYUN 1C DEB SSO 2024-08-28 15:26:04 0.0001156678 146.0 (m) DEBRIS
MOS 1B (MOMO 1B) SSO 2024-08-11 04:43:23 0.0001119291 247.0 (m) PAYLOAD

Associated space launch

Second generation soviet meteorological satellite

METEOR 2-17 DEB was lifted into orbit during the mission ‘Tsiklon-3 | Meteor-2 17’, on board a Tsiklon-3 space rocket.

The launch took place on Jan. 30, 1988, 10:59 a.m. from 32/1.

For more information about the launch, click the button.

Launch to space Tsiklon-3 | Meteor-2 17
Tsiklon-3 | Meteor-2 17

Agency: N/A

Status: Launch Successful

Launch date: Jan. 30, 1988, 10:59 a.m. UTC

Rocket: Tsiklon-3

Launch pad: 32/1

Location: Plesetsk Cosmodrome, Russian Federation

...

Latest news about this satellite

There are no fresh news available about this satellite. Check back as we update our databases every day.


Newsletter sign-up

Weekly statistics, charts and insights to help you stay on top of the space industry.